Current weather by "City, St" or "zip code"  
 

Current Conditions: Erie Municipal Airport, CO

Fair


37.0 F

Last Updated on Oct 31 2020, 1:55 am MDT
Humidity: 59%
Wind Speed: N 0.0 mph
Barometer 29.94 in
Dewpoint: 23.5 F
Visibility: 10.00 mi
Precip: --
Heat Index: NA
Wind Chill: NA
Current conditions at:

Erie Municipal Airport, CO (KEIK)

Lat: 40.01169 Lon: 105.05033

Local Radar Image active severe weather and emergency alerts image image weather storm and storm spotter reports image weather observation monitoring service image
Local
Radar
Active
Alerts
Storm Reports Obs
Monitoring

Sign-up For Email & Text Message Weather Alert Notification Services



Advertise Here

Observation History for Erie Municipal Airport, CO


Time Wind
(mph)
Vis
(mi)
Weather Precip (in) Temperature (F) Relative
Humidity
Wind
Chill
(F)
Heat
Index
(F)
Pressure
Air Dwpt altimeter
(in)
sea level
(mb)
Rmks
1:55 am MDT N 0.0 10.00 Fair -- 37.0 23.5 59% NA NA 29.94 M
12:55 am MDT N 0.0 10.00 Fair -- 39.0 23.0 52% NA NA 29.93 M
11:55 pm MDT N 0.0 10.00 Fair -- 50.0 19.0 30% NA NA 29.94 M
10:55 pm MDT SW 9.2 10.00 Fair -- 58.0 16.9 20% 56 NA 29.96 M
9:55 pm MDT S 8.1 10.00 Fair -- 48.0 22.1 36% 44 NA 29.97 M
8:55 pm MDT SW 4.6 10.00 Fair -- 51.0 21.9 32% 50 NA 29.97 M
7:55 pm MDT N 0.0 10.00 Fair -- 49.0 24.4 38% NA NA 29.99 M
6:55 pm MDT N 0.0 10.00 Fair -- 50.0 30.2 47% NA NA 29.99 M
5:55 pm MDT N 3.5 10.00 Fair -- 59.0 27.0 30% NA NA 29.99 M
4:55 pm MDT N 0.0 10.00 Fair -- 67.0 18.9 16% NA NA 30.00 M
3:55 pm MDT NE 4.6 10.00 Fair -- 68.0 22.3 18% NA NA 30.02 M
2:55 pm MDT N 0.0 10.00 Fair -- 67.0 25.0 20% NA NA 30.04 M
1:55 pm MDT N 5.8 10.00 Fair -- 65.0 28.8 26% NA NA 30.07 M
12:55 pm MDT E 4.6 10.00 Fair -- 62.0 29.1 29% 62 NA 30.12 M
11:55 am MDT N 3.5 10.00 Fair -- 58.0 29.3 34% NA NA 30.17 M
10:55 am MDT N 3.5 10.00 Fair -- 55.0 27.1 35% NA NA 30.20 M
9:55 am MDT N 0.0 10.00 Fair -- 48.0 29.3 48% NA NA 30.23 M
8:55 am MDT SW 3.5 10.00 Fair -- 37.0 33.1 84% NA NA 30.23 M
7:55 am MDT N 0.0 10.00 Fair -- 29.0 25.7 88% NA NA 30.22 M
6:55 am MDT N 0.0 10.00 Fair -- 29.0 26.2 91% NA NA 30.22 M
5:55 am MDT N 0.0 10.00 Fair -- 29.0 26.6 89% NA NA 30.22 M
4:55 am MDT N 0.0 10.00 Fair -- 31.0 29.1 92% NA NA 30.20 M
3:55 am MDT S 3.5 10.00 Fair -- 31.0 29.1 94% NA NA 30.20 M
3:35 am MDT N 0.0 7.00 Fair -- 30.0 28.4 94% NA NA 30.21 M

Regional Weather Observation


Boulder Municipal Airport, CO (KBDU)

Fair
46.0 F

Fort Collins/Loveland - Northern Colorado Regional Airport, CO (KFNL)

Fair
36.0 F

Broomfield / Jeffco, CO (KBJC)

Fair and Breezy
59.0 F

Greeley, Greeley-Weld County Airport, CO (KGXY)

Fair
30.0 F

Denver, Denver International Airport, CO (KDEN)

Fair
49.0 F

Buckley Air Force Base Airport, CO (KBKF)

Fair
42.0 F